Overview Statistics Trail Chart Weather Telemetry Raw packets
 

This is the latest recevied weather packets stored in our database for station/object KK4MOR. If no packets are shown the sender has not sent any weather packets the latest 10 day(s).

<< 1 2 3 4 5 6 >>
Time Temp. Humidity Pressure Rain* Wind** Luminosity Snow
1788574547 25° C 89% 1012.1 hPa 0 mm - - -
1788573645 25.56° C 89% 1011.9 hPa 0 mm - - -
1788572753 25.56° C 89% 1011.9 hPa 0 mm - - -
1788571847 25.56° C 88% 1011.7 hPa 0 mm - - -
1788570943 26.11° C 87% 1011.6 hPa 0 mm - - -
1788570045 26.11° C 86% 1011.6 hPa 0 mm - - -
1788569142 26.67° C 85% 1011.4 hPa 0 mm - - -
1788568243 26.67° C 84% 1011.4 hPa 0 mm - - -
1788567343 27.22° C 84% 1011.4 hPa 0 mm - - -
1788566442 27.22° C 82% 1011.4 hPa 0 mm - - -
1788565546 27.22° C 84% 1011.4 hPa 0 mm - - -
1788564642 27.78° C 83% 1011.4 hPa 0 mm - - -
1788563740 27.22° C 83% 1011.2 hPa 0 mm - - -
1788562840 27.78° C 83% 1011.1 hPa 0 mm - - -
1788561941 27.78° C 82% 1011.2 hPa 0 mm - - -
1788561048 28.33° C 80% 1011.2 hPa 0 mm - - -
1788560146 28.33° C 80% 1011.2 hPa 0 mm - - -
1788559241 28.33° C 80% 1011.1 hPa 0 mm - - -
1788558340 28.89° C 77% 1010.7 hPa 0 mm - - -
1788557436 30° C 72% 1010.9 hPa 0 mm - - -
1788556536 31.11° C 67% 1010.9 hPa 0 mm - - -
1788555637 31.67° C 62% 1011.1 hPa 0 mm - - -
1788554732 33.33° C 56% 1011 hPa 0 mm - - -
1788553833 35.56° C 56% 1011.1 hPa 0 mm - - -
1788552932 35.56° C 52% 1011.3 hPa 0 mm - - -

* Rain latest hour (hover to see other rain measurements)
** Current wind speed in m/s (hover to see current wind gust speed)